Flag for Germany Weather past 2 weeks in Gütersloh, North Rhine-Westphalia, Germany

Now
71 °F

Overcast.


Feels Like: 72 °F
Forecast: 61 / 75 °F
Wind: 5 mph from North

Location: Bad Lippspringe

Current Time: Jul 29, 2014 at 10:59:40 PM

Latest Report: Jul 29, 2014 at 10:00 PM


Visibility: 8 mi

Pressure: 29.77 "Hg

Humidity: 79%

Dew point: 64 °F

Location of GüterslohLocation

Historic Weather in Gütersloh — Graph

°F

Gütersloh temperature yesterday

Maximum temperature yesterday: 83 °F (at 5:00 PM)
Minimum temperature yesterday: 58 °F (at 6:00 AM)
Average temperature yesterday: 70 °F

Past Weeks' High & Low Weather Summary

 TemperatureHumidityPressure
High90 °F (Jul 19, 4:00 PM)98% (Jul 26, 5:00 AM)30.19 "Hg (Jul 26, 5:00 AM)
Low54 °F (Jul 15, 6:00 AM)28% (Jul 19, 3:00 PM)29.74 "Hg (Jul 29, 7:00 PM)
Average70 °F72%29.98 "Hg
* Reported Jul 14 10:00 PM — Jul 29 10:00 PM, Gütersloh, Weather by CustomWeather, © 2014

Note: Actual official high and low records may vary slightly from our data, if they occured in-between our weather recording intervals... More about our weather records

Advertising

Gütersloh weather history for previous 24 hours

 ConditionsComfort  
Time TempWeatherWind HumidityBarometerVisibility
10:00 PM
Jul 29
71 °FOvercast.5 mph79%29.77 "Hg7 mi
9:00 PM73 °FOvercast.5 mph74%29.76 "Hg7 mi
8:00 PM76 °FOvercast.2 mph62%29.75 "Hg11 mi
7:00 PM79 °FPassing clouds.3 mph55%29.74 "Hg10 mi
6:00 PM78 °FOvercast.5 mph58%29.76 "Hg9 mi
5:00 PM79 °FOvercast.5 mph61%29.76 "Hg7 mi
4:00 PM76 °FOvercast.3 mph64%29.78 "Hg8 mi
3:00 PM74 °FOvercast.2 mph72%29.80 "Hg10 mi
2:00 PM71 °FLight rain. Passing clouds.2 mph84%29.82 "Hg5 mi
1:00 PM68 °FLight rain. Partly sunny.1 mph91%29.84 "Hg3 mi
12:00 PM68 °FDrizzle. Overcast.3 mph82%29.85 "Hg7 mi
11:00 AM71 °FFog.1 mph84%29.84 "Hg4 mi
10:00 AM68 °FFog.1 mph90%29.83 "Hg3 mi
9:00 AM65 °FFog.2 mph96%29.83 "Hg2 mi
8:00 AM65 °FFog.1 mph96%29.83 "Hg2 mi
7:00 AM62 °FFog.1 mph97%29.83 "Hg2 mi
6:00 AM62 °FFog.No wind98%29.83 "Hg2 mi
5:00 AM61 °FFog.1 mph97%29.84 "Hg2 mi
4:00 AM61 °FFog.1 mph97%29.83 "Hg1 mi
3:00 AM62 °FFog.1 mph96%29.85 "Hg2 mi
2:00 AM64 °FFog.1 mph95%29.86 "Hg2 mi
1:00 AM65 °FFog.1 mph93%29.87 "Hg3 mi
12:00 AM65 °FPassing clouds.1 mph90%29.88 "Hg5 mi
11:00 PM
Jul 28
67 °FFog.2 mph90%29.86 "Hg4 mi
10:00 PM70 °FOvercast.1 mph87%29.86 "Hg6 mi
Weather by CustomWeather, © 2014

See weather overviewHow to use our weather pages